Reflectivity
-20 -20 -20 -20 -20 -20 -20 -20 -20 -20 -20 -20 -20 -20 -20 -20 -20 -20 -20 -20 -20 -20 -20 -20 -20 -20 -20 -20 -20 -20 -20 -20 -20 -20 -20 -20 -20 -20 -20 -20 35 -8 -20 -20
-20 -20 -20 -20 -20 -20 -20 -20 -20 -20 -20 -20 -20 -20 -20 -20 -20 -20 -20 -20 -20 -20 -20 -20 -20 -20 -20 -20 -20 -20 -20 -20 -20 -20 -20 -20 -20 -20 -20 -20 -20 -20 -20 -20
-20 -20 -20 -20 -20 -20 -20 -20 -20 -20 -20 -20 -20 -20 -20 -20 -20 -20 -20 -20 -20 -20 -20 -20 -20 -20 -20 -20 -20 -20 -20 -20 -20 -20 -20 -20 -20 -20 -20 -20 -20 -17 13 -10
-20 -20 -20 -20 -20 -20 -20 -20 -20 -20 -20 -20 -20 -20 -20 -20 -20 -20 -20 -20 -20 -20 -20 -20 -20 -20 -20 -20 -20 -20 -20 -20 -20 -20 -20 -20 -20 -20 -20 -20 -20 -20 -16 -20
-20 -20 -20 -20 -20 -20 -20 -20 -20 -20 -20 -20 -20 -20 -20 -20 -20 -20 -20 -20 -20 -20 -20 -20 -20 -20 -20 -20 -20 -20 -20 -20 -20 -20 -20 -20 -20 -20 -20 -20 -20 -20 -20 -20
-20 -20 -20 -20 -20 -20 -20 -20 -20 -20 -20 -20 -20 -20 -20 -20 -20 -20 -20 -20 -20 -20 -20 -20 -20 -20 -20 -20 -20 -20 -20 -20 -20 -20 -20 -20 -20 -20 -20 -20 -20 -20 -20 -20
-20 -20 -20 -20 -20 -20 -20 -20 -20 -20 -20 -20 -20 -20 -9 -20 -20 -20 -20 -20 -20 -20 -20 -20 -20 -20 -20 -20 -20 -20 -20 -20 -20 -20 -20 -20 -20 -20 -20 -20 -20 -20 -20 -20
-20 -20 -20 -20 -20 -20 -20 -20 -20 -20 -20 -20 -20 -20 -20 -20 -20 -20 -20 -20 -20 -20 -20 -20 -20 -20 -20 -20 -20 -20 -20 -20 -20 -20 -20 -20 -20 -20 -20 -20 -20 -20 -20 -20
-20 -20 -20 -20 -20 -20 -20 -20 -20 -20 -20 -20 -20 -20 -20 -20 -20 -20 -20 -20 -20 -20 -20 -20 -20 -20 -20 -20 -20 -20 -20 -20 -20 -20 -20 -20 -20 -20 -20 -20 -20 -20 -20 -20
-20 -20 -20 -20 -20 -20 -20 -20 -20 -20 -20 -20 -20 -20 -20 -20 -20 -20 -20 -20 -20 -20 -20 -20 -20 -20 -20 -20 -20 -20 -20 -20 -20 -20 -20 -20 -20 -20 -20 -20 -20 -20 -20 -20
-20 -20 -20 -20 -20 -20 -20 -20 -20 -20 -20 -20 -20 -20 -20 -20 -20 -20 -20 -20 -20 -20 -20 -20 -20 -20 -20 -20 -20 -20 -20 -20 -20 -20 -20 -20 -20 -20 -20 -20 -20 -20 -20 -20
-20 -20 -20 -20 -20 -20 -20 -20 -20 -20 -20 -20 -20 -20 -20 -20 -20 -20 -20 -20 -20 -20 -20 -20 -20 -20 -20 -20 -20 -20 -20 -20 -20 -20 -20 -20 -20 -20 -20 -20 -20 -20 -20 -20
-20 -20 -20 -20 -20 -20 -20 -20 -20 -20 -20 -20 -20 -20 -20 -20 -20 -20 -20 -20 -20 -20 -20 -20 -20 -20 -20 -20 -20 -20 -20 -20 -20 -20 -20 -20 -20 -20 -20 -20 -20 -20 -20 -20
-20 -20 -20 -20 -20 -20 -20 -20 -20 -20 -20 -20 -20 -20 -20 -20 -20 -20 -20 -20 -20 -20 -20 -20 -20 -20 -20 -20 -20 -20 -20 -20 -20 -20 -20 -20 -20 -20 -20 -20 -20 -20 -20 -20
-20 -20 -20 -20 -20 -20 -20 -20 -20 -20 -20 -20 -20 -20 -20 -20 -20 -20 -20 -20 -20 -20 -20 -20 -20 -20 -20 -20 -20 -20 -20 -20 -20 -20 -20 -20 -20 -20 -20 -20 -20 -20 -20 -20
-20 -20 -20 -20 -20 -20 -20 -20 -20 -20 -20 -20 -20 -20 -20 -20 -20 -20 -20 -20 -20 -20 -20 -20 -20 -20 -20 -20 -20 -20 -20 -20 -20 -20 -20 -20 -20 -20 -20 -20 -20 -20 -20 -20
-20 -20 -20 -20 -20 -20 -20 -20 -20 -20 -20 -20 -20 -20 -20 -20 -20 -20 -20 -20 -20 -20 -20 -20 -20 -20 -20 -20 -20 -20 -20 -20 -20 -20 -20 -20 -20 -20 -20 -20 -20 -20 -20 -20
-20 -20 -20 -20 -20 -20 -20 -20 -20 -20 -20 -20 -20 -20 -20 -20 -20 -20 -20 -20 -20 -20 -20 -20 -20 -20 -20 -20 -20 -20 -20 -20 -20 -20 -20 -20 -20 -20 -20 -20 -20 -20 -20 -20
-20 -20 -20 -20 -20 -20 -20 -20 -20 -20 -20 -20 -20 -20 -20 -20 -20 -20 -20 -20 -20 -20 -20 -20 -20 -20 -15 -20 -20 -20 -20 -20 -20 -20 -20 -20 -20 -20 -20 -20 -20 -20 -20 -20
-20 -20 -20 -20 -20 -20 -20 -20 -20 -20 -20 -20 -20 -20 -20 -20 -20 -20 -20 -20 -20 -20 -20 -20 -20 -20 -20 -20 -20 -20 -20 -20 -20 -20 -20 -20 -20 -20 -20 -20 -20 -20 -20 -20
-20 -20 -20 -20 -20 -20 -20 -20 -20 -20 -20 -20 -20 -20 -20 -20 -20 -20 -20 -20 -20 -20 -20 -20 -20 -20 -20 -20 -20 -20 -20 -20 -20 -20 -20 -20 -20 -20 -20 -20 -20 -20 -20 -20
-20 -20 -20 -20 -20 -20 -20 -20 -20 -20 -20 -20 -20 -20 -20 -20 -20 -20 -20 -20 -20 -20 -20 -20 -20 -20 -20 -20 -20 -20 -20 -20 -20 -20 -20 -20 -20 -20 -20 -20 -20 -20 -20 -20
-20 -20 -20 -20 -20 -20 -20 -20 -20 -20 -20 -20 -20 -20 -20 -20 -20 -20 -20 -20 -20 -20 -20 -20 -20 -20 -20 -20 -20 -20 -20 -20 -20 -20 -20 -20 -20 -20 -20 -20 -20 -20 -20 -20
-20 -20 -20 -20 -20 -20 -20 -20 -20 -20 -20 -20 -20 -20 -20 -20 -20 -20 -20 -20 -20 -20 -20 -20 -20 -20 -20 -20 -20 -20 -20 -20 -20 -20 -20 -20 -20 -20 -20 -20 -20 -20 -20 -20
-20 -20 -20 -20 -20 -20 -20 -20 -20 -20 -20 -20 -20 -20 -20 -20 -20 -20 -20 -20 -20 -20 -20 -20 -20 -20 -20 -20 -20 -20 -20 -20 -20 -20 -20 -20 -20 -20 -20 -20 -20 -20 -20 -20
-20 -20 -20 -20 -20 -20 -20 -20 -20 -20 -20 -20 -20 -20 -20 -20 -20 -20 -20 -20 -20 -20 -20 -20 -20 -20 -20 -20 -20 -12 -17 -19 -20 -20 -20 -20 -20 -20 -20 -20 -20 11 3 -0
Wind_Speed
14 10 12 12 6 6 5 5 7 2 3 10 12 14 11 14 15 16 17 18 18 19 19 20 18 18 17 16 16 16 15 14 10 9 9 8 8 7 6 6 5 8 7 10
10 14 12 3 4 7 10 9 3 4 2 8 12 13 12 11 17 17 18 19 20 18 20 20 20 19 18 17 16 16 16 15 12 9 8 7 7 7 4 5 5 8 9 9
17 10 6 9 10 12 11 9 7 8 1 10 10 16 8 10 14 15 16 18 20 20 20 22 22 21 19 18 18 17 17 15 14 13 8 6 5 4 6 7 7 8 8 8
14 9 7 13 14 13 15 6 8 6 7 4 3 6 5 7 13 17 18 19 20 21 21 19 23 22 21 20 18 17 16 16 14 14 10 11 8 8 8 7 6 3 6 6
15 11 14 16 15 15 13 5 7 5 9 6 12 7 7 5 10 17 19 20 21 22 22 22 21 23 23 20 18 17 17 16 16 16 12 11 10 7 5 5 3 7 5 5
18 2 12 18 18 7 1 6 8 7 8 11 3 6 7 8 5 8 17 20 22 23 23 23 21 20 20 19 18 17 17 17 17 16 16 13 12 9 6 7 5 4 6 7
15 15 13 11 14 9 14 13 10 11 11 6 7 6 8 6 5 5 6 17 21 23 24 23 23 21 19 20 19 17 18 17 17 17 16 16 14 12 9 9 7 4 6 5
13 14 17 13 18 13 15 18 12 9 11 5 5 6 7 5 4 5 7 7 17 21 22 23 23 22 22 21 20 19 19 18 18 18 17 14 15 10 9 10 5 7 4 4
8 11 6 17 15 14 12 12 15 19 13 9 12 7 11 11 2 6 8 7 12 19 23 24 24 23 23 22 21 20 19 18 19 20 16 15 14 13 10 9 9 7 5 3
9 7 7 8 9 15 18 10 12 11 16 16 10 9 10 8 10 10 5 6 7 13 20 21 21 22 21 22 21 20 19 20 20 20 17 15 15 14 12 10 10 7 5 6
15 11 6 8 13 13 11 18 14 16 14 15 13 10 6 6 10 12 14 4 6 11 16 19 20 20 20 19 20 20 19 18 18 18 17 16 15 16 14 12 10 8 8 8
19 10 14 15 10 7 14 20 24 15 18 11 14 12 13 14 16 15 13 7 6 8 16 16 19 20 20 19 19 19 18 18 18 17 16 17 15 15 15 13 12 11 10 9
9 12 11 10 10 10 13 16 19 24 20 20 16 10 11 14 14 13 12 5 5 9 14 15 17 18 19 19 16 17 19 18 18 17 18 17 16 16 15 14 13 12 11 10
5 14 13 11 1 6 19 17 20 23 18 15 17 19 15 19 18 13 8 4 5 10 14 16 16 17 18 18 16 16 17 18 17 18 18 16 17 17 15 14 14 13 12 11
7 13 14 14 9 9 10 13 19 21 23 23 17 17 14 16 18 8 7 9 9 11 15 17 18 17 18 18 17 16 16 14 15 15 15 16 15 13 13 13 14 13 12 11
4 8 6 14 13 10 13 16 18 15 19 21 21 18 15 21 8 9 9 9 12 14 17 18 17 18 19 20 19 16 15 15 15 15 15 14 14 14 14 13 14 14 13 12
8 7 9 14 10 11 16 17 18 17 17 18 18 18 13 7 8 11 12 10 14 15 16 18 20 20 19 19 17 19 17 17 16 16 14 15 15 15 15 15 15 15 14 13
9 8 7 12 12 18 12 3 7 9 15 9 15 15 6 10 14 17 12 11 11 14 16 17 17 17 18 18 18 17 18 17 16 16 15 15 15 15 15 15 15 15 14 14
13 12 8 12 15 16 19 2 7 8 8 3 7 7 9 12 16 1 13 12 11 12 11 15 16 17 16 18 18 18 18 17 18 17 16 16 16 16 16 16 16 15 14 13
16 14 12 12 17 22 13 8 7 5 9 4 6 6 8 11 10 2 15 17 16 9 11 12 17 17 19 19 20 20 19 19 18 17 17 16 16 16 17 16 15 14 14 14
12 12 17 14 15 14 3 7 3 12 4 11 11 10 10 9 11 22 20 16 14 9 7 10 14 17 18 19 20 20 20 21 19 17 16 15 16 15 15 15 13 14 13 12
15 13 13 16 20 23 5 3 8 8 9 12 12 12 13 14 16 16 15 12 10 6 5 7 9 13 16 18 19 19 19 17 15 16 17 16 15 14 13 14 13 13 13 11
15 12 10 10 6 8 6 6 4 9 11 11 13 14 14 16 16 16 11 7 6 4 6 7 8 12 14 17 17 17 13 14 16 16 16 16 15 15 12 14 14 13 13 12
4 6 10 15 5 3 6 3 5 10 11 12 13 14 14 15 15 14 7 3 0 5 9 11 11 12 12 12 12 10 12 12 14 15 16 15 16 15 14 12 13 13 13 13
11 5 9 16 17 6 5 6 13 12 10 12 13 14 13 14 14 12 4 3 2 4 6 10 12 12 13 14 13 13 13 14 13 13 13 14 13 16 14 13 13 14 13 14
13 14 12 10 8 8 6 13 11 11 11 12 14 14 12 12 13 9 2 3 5 6 5 6 6 10 13 13 14 12 14 14 14 14 12 11 11 13 13 13 10 10 9 7
Wind_Direction
193 219 216 207 217 346 221 256 255 245 128 258 250 266 275 180 212 209 198 192 192 201 190 189 191 190 192 190 189 191 194 187 190 199 205 211 215 210 205 227 219 196 200 196
180 226 231 315 213 226 224 248 237 99 196 249 282 277 276 208 212 211 203 194 197 196 193 190 191 193 196 192 194 197 203 196 201 200 210 217 210 215 169 215 217 221 204 197
226 216 213 223 219 241 236 274 329 342 221 246 284 268 238 218 207 217 214 206 201 195 199 193 194 196 195 197 197 194 197 197 200 214 200 192 202 206 207 205 205 218 214 201
236 213 220 222 242 243 268 64 294 288 255 327 263 303 252 168 204 207 204 208 207 198 200 203 198 196 198 199 198 197 194 195 198 199 198 197 203 206 205 212 196 212 214 196
219 204 225 237 240 243 263 346 302 289 263 280 205 259 108 168 203 211 211 205 210 206 202 203 205 199 201 194 193 193 193 194 200 192 212 194 218 202 194 227 176 222 186 206
255 201 260 249 243 240 160 226 231 235 269 263 93 256 147 153 207 199 203 210 206 210 205 203 205 201 199 194 196 192 190 193 197 196 198 206 200 220 194 202 204 239 209 185
212 237 223 246 232 218 220 238 243 225 211 246 87 254 313 176 231 248 201 199 211 204 206 204 203 201 196 198 195 197 194 194 192 196 196 200 211 210 197 201 196 226 233 207
210 207 214 198 231 199 220 235 242 232 255 231 138 248 134 78 342 274 248 246 193 208 207 205 201 199 199 198 195 196 192 197 191 193 199 197 205 204 210 208 211 214 231 212
199 242 136 230 212 237 181 234 255 280 275 265 269 234 247 254 143 192 240 211 213 198 203 203 199 201 200 199 200 195 195 198 194 192 192 194 198 212 209 218 204 215 215 186
220 260 195 138 226 237 257 227 220 227 257 262 258 237 279 286 301 316 208 248 232 208 196 201 196 197 198 199 197 196 194 194 193 193 191 191 194 198 203 208 218 217 190 204
234 230 172 170 205 220 193 232 241 272 241 247 254 251 273 315 297 311 313 277 258 200 190 195 195 192 194 198 194 192 194 190 191 196 190 193 196 193 197 203 210 207 198 192
219 244 237 221 220 250 256 213 224 227 231 239 272 280 302 303 293 313 299 281 296 215 183 190 191 187 193 188 191 190 190 190 188 186 186 193 195 198 193 200 199 197 195 199
170 220 234 225 192 205 237 240 238 231 242 249 256 258 273 287 281 288 283 278 227 198 173 187 189 186 189 182 187 188 187 192 183 183 187 188 194 194 199 188 194 194 194 202
255 250 239 249 357 317 203 224 225 244 238 244 248 266 266 281 287 289 232 200 225 189 184 190 189 184 189 185 184 185 189 188 185 183 187 181 189 192 193 186 185 187 193 198
263 252 239 264 287 279 269 246 216 230 245 246 258 257 268 268 284 316 310 177 191 184 191 195 195 186 188 185 181 188 188 184 183 179 186 181 184 185 182 184 180 185 189 197
251 261 278 259 245 248 254 251 250 234 248 245 253 267 269 276 341 284 257 211 201 193 199 199 196 185 187 187 184 185 184 182 179 181 186 177 176 178 178 179 175 182 187 193
273 271 243 253 244 254 252 242 241 244 228 243 237 240 259 295 314 304 296 214 215 201 196 197 194 195 188 188 178 182 181 176 179 185 186 182 178 180 180 178 178 181 187 188
271 252 257 264 255 240 253 2 308 293 249 257 276 271 359 313 298 287 280 269 230 209 193 197 196 199 190 184 179 178 178 178 178 184 186 184 183 183 183 180 183 180 185 191
220 259 257 248 245 258 258 129 296 264 248 23 278 293 290 303 296 38 45 12 320 281 225 197 194 193 183 181 169 175 176 178 179 185 188 185 184 184 183 185 184 183 185 191
214 226 249 241 250 252 257 82 345 286 230 53 345 330 319 320 267 180 0 336 316 289 251 214 186 185 177 176 168 171 176 178 184 186 189 183 184 187 184 184 182 183 187 193
207 220 225 228 252 252 16 350 350 229 15 348 342 337 330 310 320 310 315 313 300 299 242 222 194 181 176 169 167 178 177 185 187 184 184 183 187 189 184 182 178 180 188 188
235 215 219 230 243 237 60 202 263 13 341 336 336 331 323 316 308 304 308 303 298 275 225 191 195 179 172 171 176 184 185 179 176 176 182 184 184 189 182 183 177 179 183 189
246 266 290 280 276 133 60 67 45 360 331 334 326 325 324 315 317 314 303 312 314 248 169 151 172 181 176 181 189 187 172 174 174 177 181 182 182 186 176 182 179 182 184 192
241 298 266 263 238 48 307 134 5 345 327 319 322 321 319 318 320 311 305 301 99 164 165 153 162 172 166 176 186 186 166 175 179 187 184 181 179 181 184 186 187 197 192 199
270 353 268 258 266 279 178 32 351 335 331 328 326 319 321 324 321 304 334 340 116 125 136 153 167 166 167 167 180 179 167 175 186 194 197 192 189 188 185 196 194 202 204 203
246 246 248 252 54 320 25 341 324 334 331 339 331 329 331 327 318 297 83 57 55 75 95 116 153 161 164 171 174 175 172 176 184 188 196 200 201 187 197 193 184 56 30 333